Regional Weather Roundup
Issued by NWS Binghamton, NY

Home | Current Version | Previous Version | Text Only | Print | Product List | Glossary On
Versions: 1 2 3 4 5 6 7 8 9 10 11 12 13 14 15 16 17 18 19 20 21 22 23 24 25 26 27 28 29 30 31 32 33 34 35 36 37 38 39 40 41 42 43 44 45 46 47 48 49 50
000
ASUS41 KBGM 291410
RWRBGM
RWRBGM
BINGHAMTON REGIONAL WEATHER ROUNDUP
NATIONAL WEATHER SERVICE BINGHAMTON NY
1000 AM EDT TUE JUL 29 2014

Note: "fair" indicates few or no clouds below 12,000 feet with no
significant weather and/or obstructions to visibility.

* = Station(s) that does not report precipitation, such as rain,
snow, etc, also no thunder or fog.

!NYZ009-015>018-022>025-036-037-044>046-055>057-062-291500
...CENTRAL NEW YORK...

CITY           SKY/WX    TMP DP  RH WIND       PRES   REMARKS
BINGHAMTON     CLOUDY    58  53  84 W8        29.92R
CORTLAND       CLOUDY    59  55  88 W5        29.93R
DANSVILLE      CLOUDY    60  54  80 CALM      29.94S
ELMIRA         CLOUDY    60  54  80 VRB6      29.93R
ITHACA         CLOUDY    59  56  89 NW7       29.94R
HAMILTON       PTSUNNY   63  52  67 W5        29.90R
MONTICELLO     PTSUNNY   63  52  67 W10G17    29.91R
NORWICH        MOSUNNY   63  52  67 NW6       29.91R
ONEONTA        PTSUNNY   57  52  82 W5        29.91R
PENN YAN       CLOUDY    62  54  74 NW6       29.92R
ROME           SUNNY     62  54  74 W8        29.89R
SIDNEY         MOSUNNY   63  57  82 NW5       29.91R
SYRACUSE       PTSUNNY   64  54  69 W8        29.89R
$$

!PAZ038>040-043-044-047-048-072-291500
...NORTHEAST PENNSYLVANIA...

CITY           SKY/WX    TMP DP  RH WIND       PRES   REMARKS
HAZLETON       PTSUNNY   61  52  72 W5        29.96R
SCRANTON       PTSUNNY   65  52  62 VRB3      29.92R
TOWANDA*       PTSUNNY   61  54  77 W6        29.94R
$$
&&
KEY
WCI = WIND CHILL INDEX
VSB = VISIBILITY
HX  = HEAT INDEX
$$


USA.gov is the U.S. government's official web portal to all federal, state and local government web resources and services.